DW8248 Weather Reports


time (UTC)temp
C
wind
direction
speed
KPH
gust
KPH
rain 1hr
cm
rain 24hr
cm
rain mn
cm
humidity
%
barometer
mb
20190121021200 10 290 30.6 37.0 0.00 0.36 0.36 85 1019.4
20190121020220 10 312 27.4 37.0 0.00 0.36 0.36 83 1019.0
20190121015213 10 290 24.1 30.6 0.00 0.36 0.36 83 1018.7
20190121014232 10 288 24.1 29.0 0.00 0.36 0.36 82 1018.3
20190121013235 10 283 22.5 32.2 0.00 0.36 0.36 82 1018.0
20190121012224 10 294 25.7 46.7 0.00 0.36 0.36 82 1017.8
20190121011210 10 292 32.2 46.7 0.00 0.36 0.36 82 1017.8
20190121010203 11 294 35.4 45.1 0.00 0.36 0.36 81 1017.9
20190121005208 11 281 32.2 48.3 0.00 0.36 0.36 82 1017.8
20190121004144 11 289 35.4 48.3 0.00 0.36 0.36 80 1017.7
20190121003143 11 287 32.2 45.1 0.00 0.36 0.36 81 1017.3
20190121002142 11 293 33.8 45.1 0.00 0.36 0.36 80 1017.0
20190121001203 12 285 30.6 40.2 0.00 0.36 0.36 78 1016.8
20190121000209 12 293 29.0 37.0 0.00 0.36 0.36 78 1016.5
20190120235231 12 274 30.6 46.7 0.00 0.36 0.36 77 1016.2
20190120234236 13 286 32.2 46.7 0.00 0.36 0.36 76 1015.9
20190120233233 13 273 33.8 41.8 0.00 0.36 0.36 74 1015.5
20190120232211 13 276 30.6 41.8 0.00 0.36 0.36 75 1015.2
20190120231144 14 278 30.6 38.6 0.00 0.36 0.36 73 1014.8
20190120230128 14 285 29.0 37.0 0.00 0.36 0.36 73 1014.6
20190120225117 15 280 30.6 35.4 0.00 0.36 0.36 71 1014.4
20190120224107 15 275 29.0 37.0 0.00 0.36 0.36 71 1014.3
20190120223038 15 273 30.6 43.5 0.00 0.36 0.36 69 1014.2
20190120222012 15 273 33.8 43.5 0.00 0.36 0.36 70 1013.8
20190120220955 15 270 32.2 41.8 0.00 0.36 0.36 69 1013.6
20190120220009 15 270 30.6 41.8 0.00 0.36 0.36 69 1013.5
20190120215006 15 290 30.6 45.1 0.00 0.36 0.36 70 1013.4
20190120214028 15 260 35.4 48.3 0.00 0.36 0.36 70 1013.4
20190120213036 16 262 38.6 51.5 0.00 0.36 0.36 71 1013.1
20190120212024 16 274 38.6 51.5 0.00 0.36 0.36 69 1012.8
20190120210948 16 265 37.0 49.9 0.00 0.36 0.36 68 1012.8
20190120205933 16 271 41.8 57.9 0.00 0.36 0.36 71 1012.6
20190120204918 16 276 43.5 57.9 0.00 0.36 0.36 68 1012.4
20190120203915 16 280 41.8 51.5 0.00 0.36 0.36 68 1012.2
20190120202933 16 265 38.6 51.5 0.00 0.36 0.36 67 1012.1
20190120201932 17 286 38.6 54.7 0.00 0.36 0.36 67 1012.0
20190120200905 17 275 40.2 54.7 0.00 0.36 0.36 67 1011.8
20190120195903 17 286 38.6 53.1 0.00 0.36 0.36 66 1011.8
20190120194834 17 276 45.1 57.9 0.00 0.36 0.36 65 1011.8
20190120193851 17 280 45.1 59.5 0.00 0.36 0.36 63 1011.7
20190120192818 17 273 41.8 59.5 0.00 0.36 0.36 63 1011.5
20190120191742 17 262 43.5 56.3 0.00 0.36 0.36 63 1011.4
20190120190738 17 275 45.1 57.9 0.00 0.36 0.36 65 1011.4
20190120185745 17 281 45.1 59.5 0.00 0.36 0.36 65 1011.3
20190120184759 17 271 45.1 59.5 0.00 0.36 0.36 64 1011.2
20190120183808 17 275 43.5 54.7 0.00 0.36 0.36 66 1011.1
20190120182748 18 271 41.8 54.7 0.00 0.36 0.36 64 1010.9
20190120181721 18 267 41.8 53.1 0.00 0.36 0.36 64 1011.0
20190120180738 18 277 45.1 53.1 0.00 0.36 0.36 64 1011.1
20190120175714 18 277 38.6 53.1 0.00 0.36 0.36 65 1011.1
20190120174639 18 261 38.6 49.9 0.00 0.36 0.36 64 1011.2
20190120173614 18 267 41.8 57.9 0.00 0.36 0.36 65 1011.1
20190120172616 18 278 45.1 57.9 0.00 0.36 0.36 66 1011.2
20190120171624 18 261 41.8 54.7 0.00 0.36 0.36 65 1011.3
20190120170608 18 276 40.2 53.1 0.00 0.36 0.36 67 1011.3
20190120165557 18 274 40.2 53.1 0.00 0.36 0.36 66 1011.2
20190120164551 18 269 43.5 56.3 0.00 0.36 0.36 66 1011.3
20190120163613 17 273 43.5 56.3 0.00 0.36 0.36 69 1011.5
20190120162630 17 271 40.2 54.7 0.00 0.36 0.36 69 1011.4
20190120161635 17 261 45.1 56.3 0.00 0.36 0.36 69 1011.5
20190120160653 17 276 40.2 56.3 0.00 0.36 0.36 69 1011.5
20190120155656 17 269 41.8 56.3 0.00 0.36 0.36 73 1011.6
20190120154634 18 261 41.8 56.3 0.00 0.36 0.36 71 1011.5
20190120153638 18 273 38.6 53.1 0.00 0.36 0.36 73 1011.3
20190120152649 18 265 41.8 53.1 0.00 0.36 0.36 74 1011.3
20190120151707 17 260 37.0 51.5 0.00 0.36 0.36 73 1011.4
20190120150655 18 273 32.2 48.3 0.00 0.36 0.36 75 1011.3
20190120145625 18 269 32.2 46.7 0.00 0.36 0.36 76 1011.1
20190120144550 17 265 30.6 43.5 0.00 0.36 0.36 77 1011.0
20190120143545 17 277 30.6 43.5 0.00 0.36 0.36 81 1010.8
20190120142559 17 254 33.8 49.9 0.00 0.36 0.36 83 1010.7
20190120141621 17 266 35.4 49.9 0.00 0.36 0.36 81 1010.6
20190120140625 17 288 37.0 49.9 0.00 0.36 0.36 83 1010.5
20190120135624 17 276 32.2 43.5 0.00 0.33 0.33 86 1010.4
20190120134602 17 281 29.0 37.0 0.00 0.33 0.33 86 1010.2
20190120133606 17 270 27.4 40.2 0.00 0.33 0.33 86 1010.1
20190120132611 17 282 29.0 40.2 0.00 0.33 0.33 87 1010.1
20190120131631 17 276 25.7 38.6 0.00 0.33 0.33 87 1010.1
20190120130558 17 270 27.4 40.2 0.00 0.33 0.33 88 1009.9
20190120125542 17 277 30.6 40.2 0.00 0.33 0.33 89 1009.9
20190120124535 17 289 27.4 35.4 0.00 0.33 0.33 90 1009.8
20190120123508 17 290 29.0 37.0 0.00 0.33 0.33 90 1009.6
20190120122509 17 289 33.8 43.5 0.00 0.33 0.33 90 1009.5
20190120121435 18 292 30.6 43.5 0.00 0.33 0.33 91 1009.2
20190120120411 19 274 27.4 40.2 0.00 0.33 0.33 91 1008.8
20190120115421 19 259 29.0 40.2 0.00 0.33 0.33 92 1008.6
20190120114412 19 245 24.1 35.4 0.00 0.33 0.33 93 1008.4
20190120113353 19 231 24.1 35.4 0.13 0.33 0.33 93 1008.4
20190120112339 19 225 25.7 38.6 0.41 0.33 0.33 93 1008.0
20190120111356 19 220 29.0 38.6 0.23 0.28 0.28 93 1008.1
20190120110404 20 219 27.4 35.4 0.28 0.23 0.23 93 1007.9
20190120105408 20 219 29.0 41.8 0.33 0.18 0.20 92 1007.6
20190120104340 20 225 29.0 41.8 0.00 0.15 0.15 92 1007.7
20190120103331 20 217 30.6 40.2 0.00 0.13 0.13 91 1007.6
20190120102349 20 200 29.0 40.2 0.00 0.13 0.13 92 1007.5
20190120101330 20 214 27.4 40.2 0.00 0.13 0.13 93 1007.5
20190120100301 20 203 27.4 38.6 0.10 0.13 0.13 92 1007.6
20190120095257 20 195 24.1 35.4 0.10 0.10 0.10 92 1007.5
20190120094311 19 206 24.1 32.2 0.30 0.10 0.10 92 1007.8
20190120093317 20 205 25.7 37.0 0.00 0.00 0.00 91 1007.9
20190120092259 20 194 27.4 40.2 0.00 0.00 0.00 90 1008.0
20190120091302 20 194 30.6 40.2 0.00 0.00 0.00 89 1008.1
20190120090244 20 198 29.0 37.0 0.00 0.00 0.00 89 1008.2
20190120085259 20 192 27.4 35.4 0.00 0.00 0.00 88 1008.4
20190120084229 20 199 25.7 35.4 0.00 0.00 0.00 89 1008.6
20190120083202 19 198 25.7 35.4 0.00 0.00 0.00 88 1008.8
20190120082204 19 211 25.7 32.2 0.00 0.00 0.00 88 1008.8
20190120081151 19 196 25.7 33.8 0.00 0.00 0.00 88 1008.8
20190120080210 19 198 27.4 35.4 0.00 0.00 0.00 88 1008.9
20190120075136 19 193 27.4 37.0 0.00 0.00 0.00 88 1009.1
20190120074143 19 192 25.7 37.0 0.00 0.00 0.00 88 1009.1
20190120073113 18 180 25.7 33.8 0.00 0.00 0.00 87 1009.4
20190120072101 18 186 25.7 33.8 0.00 0.00 0.00 87 1009.5
20190120071046 18 189 22.5 33.8 0.00 0.00 0.00 87 1009.5
20190120070019 18 184 22.5 33.8 0.00 0.00 0.00 87 1009.6
20190120065022 18 190 22.5 33.8 0.00 0.00 0.00 86 1009.8
20190120063957 18 188 24.1 35.4 0.00 0.00 0.00 86 1009.9
20190120062956 18 184 24.1 35.4 0.00 0.00 0.00 85 1010.2
20190120062005 19 191 20.9 30.6 0.00 0.00 0.00 85 1010.4
20190120060953 18 196 20.9 27.4 0.00 0.00 0.00 84 1010.5
20190120055934 18 187 22.5 32.2 0.00 0.00 0.00 84 1010.6
20190120054900 18 191 22.5 32.2 0.00 0.00 0.00 83 1010.9
20190120053908 19 186 24.1 30.6 0.00 0.00 0.00 83 1011.0
20190120052924 19 192 22.5 30.6 0.00 0.00 0.00 83 1011.4
20190120051910 19 191 25.7 33.8 0.00 0.00 0.00 83 1011.4
20190120050915 19 191 25.7 33.8 0.00 0.00 0.00 82 1011.6
20190120045936 19 192 25.7 33.8 0.00 0.00 0.00 81 1011.7
20190120044937 19 186 25.7 33.8 0.00 0.00 0.00 81 1011.7
20190120043958 19 188 24.1 37.0 0.00 0.00 0.00 81 1011.6
20190120042950 19 189 24.1 37.0 0.00 0.00 0.00 80 1011.7
20190120042007 19 182 20.9 32.2 0.00 0.00 0.00 80 1011.8
20190120041028 19 186 17.7 27.4 0.00 0.00 0.00 81 1011.9
20190120040037 19 180 16.1 27.4 0.00 0.00 0.00 81 1011.9
20190120035005 19 178 16.1 22.5 0.00 0.00 0.00 81 1011.9
20190120034025 19 177 14.5 20.9 0.00 0.00 0.00 82 1011.9
20190120033039 19 174 14.5 25.7 0.00 0.00 0.00 81 1011.9
20190120032027 20 172 16.1 25.7 0.00 0.00 0.00 81 1012.0
20190120030958 20 178 14.5 24.1 0.00 0.00 0.00 81 1012.1
20190120025940 20 166 16.1 22.5 0.00 0.00 0.00 82 1012.1
20190120024920 20 180 16.1 20.9 0.00 0.00 0.00 81 1012.2
20190120023853 20 176 16.1 25.7 0.00 0.00 0.00 81 1012.4
20190120022819 20 176 17.7 27.4 0.00 0.00 0.00 81 1012.6